Вернуться в каталог

STARLINK-35499

АктивенСвязьVLEO
NORAD 66462·PAYLOAD·🇺🇸 United States

Запущен Nov 15, 2025 с Cape Canaveral Space Force Station

Loading…

Ближайшие Пролёты (ближайшие 24 часа)

TLE

СвежийSource: CelesTrak SupGP

Эпоха: Sep 14, 2026, 21:19 UTC

1 66462C 25262G   26257.88868056 -.00013591  00000+0 -49229-3 0  2578
2 66462  43.0019 307.3905 0001732 266.6603 152.7131 15.27583901    14

Отслеживайте STARLINK-35499 в реальном времени с AllMySat

Download on the App Store